Regional Weather Roundup
Issued by NWS Upton, NY

Current Version | Previous Version | Graphics & Text | Print | Product List | Glossary Off
Versions: 1 2 3 4 5 6 7 8 9 10 11 12 13 14 15 16 17 18 19 20 21 22 23 24 25 26 27 28 29 30 31 32 33 34 35 36 37 38 39 40 41 42 43 44 45 46 47 48 49 50

000
ASUS41 KOKX 260405
RWROKX

REGIONAL WEATHER ROUNDUP
NATIONAL WEATHER SERVICE NEW YORK NY
1100 PM EST TUE NOV 25 2014

NOTE: "FAIR" INDICATES FEW OR NO CLOUDS BELOW 12,000 FEET WITH NO
SIGNIFICANT WEATHER AND/OR OBSTRUCTIONS TO VISIBILITY.

NYZ071-072-176-178-NJZ106-104-260500-
NEW YORK CITY METRO AREA


CITY           SKY/WX    TMP DP  RH WIND       PRES   REMARKS
CENTRAL PARK   CLOUDY    51  28  41 VRB7      30.18R
LAGUARDIA APRT CLOUDY    51  29  42 W9        30.15R
KENNEDY INTL   CLOUDY    50  31  48 W7        30.17R
NEWARK/LIBERTY CLOUDY    49  31  49 W5        30.16R
BRNX BOT. GARD   N/A    N/A N/A N/A W6        30.17R
TETERBORO      CLOUDY    48  31  51 SW6       30.15R
$$

NYZ177-179-078>081-260500-
LONG ISLAND NEW YORK

CITY           SKY/WX    TMP DP  RH WIND       PRES   REMARKS
FARMINGDALE    NOT AVBL
ISLIP          CLOUDY    48  34  58 W5        30.13R
SHIRLEY        CLOUDY    49  34  56 W5        30.16R
WESTHAMPTON    CLOUDY    45  35  68 W6        30.15R
MONTAUK POINT    N/A     51  35  54 W5        30.14R
$$

NYZ052-065-067-260500-
HUDSON VALLEY

CITY           SKY/WX    TMP DP  RH WIND       PRES   REMARKS
WHITE PLAINS   CLOUDY    47  28  47 W5        30.14R
NEWBURGH       CLEAR     43  28  56 CALM      30.13R
MONTGOMERY     CLOUDY    38  29  70 CALM      30.12R
POUGHKEEPSIE   CLOUDY    39  31  72 CALM      30.13R
ALBANY         MOCLDY    36  27  69 SW3       30.15R
$$

NJZ001-105-106-008-010-013-015-019>022-104-260500-
NEW JERSEY

CITY           SKY/WX    TMP DP  RH WIND       PRES   REMARKS
NEWARK/LIBERTY CLOUDY    49  31  49 W5        30.16R
TETERBORO      CLOUDY    48  31  51 SW6       30.15R
CALDWELL       CLOUDY    46  28  49 CALM      30.16R
MORRISTOWN       N/A     41  34  75 CALM      30.16R
SOMERVILLE     CLOUDY    38  32  79 CALM      30.15R
SUSSEX         MOCLDY    34  30  85 CALM      30.15R
ANDOVER          N/A     36  33  89 CALM      30.16R
TRENTON        CLOUDY    43  31  62 CALM      30.17R
MILLVILLE      CLOUDY    45  38  76 CALM      30.16S
ATLANTIC CITY  CLOUDY    48  36  63 CALM      30.18R
WRIGHTSTOWN    CLOUDY    46  34  63 W2        30.16R
TOMS RIVER     CLOUDY    43  37  81 CALM      30.18R
BELMAR         CLOUDY    46  30  53 CALM      30.17R
$$

PAZ047>061-062-071-260500-
EASTERN PENNSYLVANIA

CITY           SKY/WX    TMP DP  RH WIND       PRES   REMARKS
PHILADELPHIA   CLOUDY    48  34  58 S3        30.18R
ALLENTOWN      CLOUDY    38  29  70 CALM      30.16R
SCRANTON       MOCLDY    39  27  62 CALM      30.13R
$$

CTZ002-004>006-009-010-012-RIZ004-006-007-MAZ004-011-015-260500-
SOUTHERN NEW ENGLAND
 IN CT

CITY           SKY/WX    TMP DP  RH WIND       PRES   REMARKS
BRADLEY INTL   CLOUDY    44  28  53 SW3       30.11R
HARTFORD       CLOUDY    42  30  62 SE5       30.13R
DANBURY        CLOUDY    37  31  78 SW6       30.14R WCI  32
WTRBRY/OXFORD  CLOUDY    43  27  52 SW3       30.13R
BRIDGEPORT     CLOUDY    47  35  63 W3        30.14R
MERIDEN        CLOUDY    36  32  85 CALM      30.13R
NEW HAVEN      CLOUDY    50  35  56 W3        30.14R
CHESTER        FAIR      46  30  53 W6        30.13R
GROTON         CLOUDY    49  37  63 W10       30.12R
WILLIMANTIC    CLOUDY    38  33  82 CALM      30.12R

 IN RI

CITY           SKY/WX    TMP DP  RH WIND       PRES   REMARKS
PROVIDENCE     CLOUDY    47  29  49 W3        30.11R
BLOCK ISLAND   CLOUDY    52  36  54 W9        30.12R
WESTERLY       CLOUDY    50  34  54 VRB5      30.12R

 IN MA

CITY           SKY/WX    TMP DP  RH WIND       PRES   REMARKS
BOSTON         CLOUDY    50  28  42 W10       30.10R
WORCESTER      CLOUDY    40  27  59 SW6       30.08R
WESTFIELD      CLOUDY    36  29  75 CALM      30.10R
PROVINCETOWN   CLOUDY    48  39  71 W7        30.12R
NANTUCKET      CLOUDY    52  40  63 W9        30.10S
$$

ANZ330-335-338-340-345-350-353-355-260500-
COASTAL MARINE OBSERVATIONS


STATION/POSITION TIME  SKY/WX   TEMP    WIND        PRES    VSBY  WAVE
                                AIR SEA DIR/SP/G                  HT/PER
                 (UTC)          (F)     (DEG/KT/KT) (MB)    (MI)  (FT/S)
NY HARB ENTRANCE 0400            52 54  270/ 12/ 14 1021.7          4/ 9
4S FIRE IS       0400               53                N/A           5/ 9
20S FIRE ISLAND  0400            54 55  290/ 16/ 17 1020.7          4/ 9
23SW MTP         0400                                 N/A           5/ 9
HUDSON CANYON    0400            55 60  310/ 10/ 14 1020.5          5/10
EXECUTION ROCKS  0400            51 48  240/  8/ 10   N/A
WESTERN LI SOUND 0400            51     260/ 10/ 12   N/A           0
CENTRAL LI SOUND 0300            51 50  260/ 10/ 12   N/A           1/ 3
EASTERN LI SOUND 0300            52 52  260/ 12/ 16   N/A
ROBBINS REEF     0400            49     280/  5/  7 1020.0
$$


>>>>>>>>>>>>>>>>>>>>>>>>>>>> KEY <<<<<<<<<<<<<<<<<<<<<<<<<<<
>                                                          <
>     SKY/WX - SKY CONDITION/PRESENT WEATHER               <
>     TMP    - TEMPERATURE IN FAHRENHEIT                   <
>     DP     - DEWPOINT IN FAHRENHEIT                      <
>     RH     - RELATIVE HUMIDITY IN PERCENT                <
>     WIND   - DIRECTION AND SPEED IN MPH                  <
>     PRES   - MEAN SEA LEVEL PRESSURE IN INCHES OF HG     <
>     WCI    - WIND CHILL INDEX                            <
>     VSB    - VISIBILITY IN MILES                         <
>     HX     - HEAT INDEX                                  <
>     TC     - TEMPERATURE IN CELSIUS                      <
>     VRB    - VARIABLE WIND DIRECTION                     <
>                                                          <
>>>>>>>>>>>>>>>>>>>>>>>>>>>> KEY <<<<<<<<<<<<<<<<<<<<<<<<<<<





USA.gov is the U.S. government's official web portal to all federal, state and local government web resources and services.